Simultaneous Nadir Overpasses (SNOs) Predictions

Prediction of SNOs between METOP-C and LANDSAT-8 Satellite Orbit:

Table of predicted SNOs for the next 14.0 days since TLE Epoch: 9/3/2021
Index Date (METOP-C) Time (METOP-C) Lat,Lon (METOP-C) SZA (METOP-C ) Date (LANDSAT-8) Time (LANDSAT-8) Lat,Lon (LANDSAT-8) SZA (LANDSAT-8 ) Distance(km) Time Diff (sec)
1 09/05/2021 18:32:46 -81.19, 122.87 103.12 09/05/2021 18:32:54 -81.19, 122.88 103.11 0.47 8
2 09/05/2021 19:23:26 81.20, -69.27 76.97 09/05/2021 19:22:20 81.19, -69.39 76.92 2.16 66
3 09/08/2021 14:07:06 -81.19,-170.59 102.03 09/08/2021 14:07:10 -81.19,-170.67 102.04 1.51 4
4 09/08/2021 14:57:47 81.19, -3.16 78.00 09/08/2021 14:56:36 81.19, -2.97 77.99 3.28 71
5 09/11/2021 08:50:48 81.16, 87.69 78.95 09/11/2021 08:52:00 81.17, 87.73 78.98 0.76 72
6 09/11/2021 09:41:27 -81.18,-104.43 100.98 09/11/2021 09:41:26 -81.19,-104.27 100.96 2.88 1
7 09/11/2021 10:31:31 81.36, 77.46 80.83 09/11/2021 10:30:18 81.73, 76.95 80.94 42.51 73
8 09/14/2021 04:25:07 81.17, 154.15 80.05 09/14/2021 04:26:15 81.16, 154.09 80.07 1.20 68
9 09/14/2021 05:15:46 -81.19, -37.91 99.87 09/14/2021 05:15:41 -81.18, -37.89 99.87 0.35 5
10 09/16/2021 23:59:26 81.18,-139.04 81.20 09/17/2021 00:00:30 81.18,-139.23 81.21 3.28 64



Historial Predications of SNOs between METOP-C and LANDSAT-8
